| time (UTC) | temp F | wind direction | speed knots | gust knots | rain 1hr in | rain 24hr in | rain mn in | humidity % | barometer mb |
| 20260508022306 | 64 | 132 | 0.0 | 1.7 | 0.00 | 0.00 | 0.00 | 47 | 1009.5 |
| 20260508021802 | 64 | 127 | 1.7 | 1.7 | 0.00 | 0.00 | 0.00 | 46 | 1009.5 |
| 20260508021302 | 65 | 159 | 0.0 | 0.0 | 0.00 | 0.00 | 0.00 | 45 | 1009.1 |
| 20260508020801 | 65 | 160 | 0.0 | 1.7 | 0.00 | 0.00 | 0.00 | 44 | 1009.1 |
| 20260508020301 | 66 | 202 | 0.0 | 1.7 | 0.00 | 0.00 | 0.00 | 43 | 1009.1 |
| 20260508015728 | 66 | 55 | 0.0 | 2.6 | 0.00 | 0.00 | 0.00 | 43 | 1009.1 |
| 20260508015227 | 66 | 265 | 0.9 | 2.6 | 0.00 | 0.00 | 0.00 | 42 | 1009.1 |
| 20260508014727 | 66 | 248 | 0.9 | 1.7 | 0.00 | 0.00 | 0.00 | 42 | 1009.1 |
| 20260508014226 | 66 | 137 | 0.0 | 1.7 | 0.00 | 0.00 | 0.00 | 42 | 1008.8 |
| 20260508013726 | 66 | 171 | 0.0 | 4.3 | 0.00 | 0.00 | 0.00 | 42 | 1008.8 |
| 20260508013225 | 67 | 223 | 1.7 | 4.3 | 0.00 | 0.00 | 0.00 | 42 | 1008.8 |
| 20260508012653 | 67 | 153 | 0.9 | 0.9 | 0.00 | 0.00 | 0.00 | 41 | 1008.8 |
| 20260508012152 | 68 | 170 | 0.0 | 0.9 | 0.00 | 0.00 | 0.00 | 40 | 1008.8 |
| 20260508011652 | 69 | 210 | 0.9 | 0.9 | 0.00 | 0.00 | 0.00 | 39 | 1008.5 |
| 20260508011151 | 69 | 263 | 0.9 | 1.7 | 0.00 | 0.00 | 0.00 | 38 | 1008.5 |
| 20260508010650 | 70 | 219 | 1.7 | 4.3 | 0.00 | 0.00 | 0.00 | 37 | 1008.5 |
| 20260508010150 | 71 | 265 | 0.9 | 5.2 | 0.00 | 0.00 | 0.00 | 36 | 1008.5 |
| 20260508005649 | 71 | 229 | 0.9 | 5.2 | 0.00 | 0.00 | 0.00 | 35 | 1008.5 |
| 20260508005149 | 72 | 234 | 1.7 | 4.3 | 0.00 | 0.00 | 0.00 | 35 | 1008.5 |
| 20260508004617 | 72 | 235 | 1.7 | 6.1 | 0.00 | 0.00 | 0.00 | 35 | 1008.5 |
| 20260508004116 | 72 | 234 | 1.7 | 6.1 | 0.00 | 0.00 | 0.00 | 34 | 1008.5 |
| 20260508003545 | 72 | 240 | 3.5 | 6.1 | 0.00 | 0.00 | 0.00 | 33 | 1008.5 |
| 20260508003044 | 72 | 233 | 1.7 | 6.1 | 0.00 | 0.00 | 0.00 | 33 | 1008.5 |
| 20260508002544 | 72 | 243 | 1.7 | 6.1 | 0.00 | 0.00 | 0.00 | 34 | 1008.5 |
| 20260508002012 | 72 | 203 | 2.6 | 9.6 | 0.00 | 0.00 | 0.00 | 32 | 1008.5 |
| 20260508001511 | 72 | 235 | 6.1 | 9.6 | 0.00 | 0.00 | 0.00 | 32 | 1008.5 |
| 20260508001011 | 72 | 233 | 2.6 | 7.0 | 0.00 | 0.00 | 0.00 | 32 | 1008.5 |
| 20260508000510 | 72 | 250 | 2.6 | 9.6 | 0.00 | 0.00 | 0.00 | 33 | 1008.5 |
| 20260508000009 | 72 | 247 | 2.6 | 10.4 | 0.00 | 0.00 | 0.00 | 32 | 1008.8 |
| 20260507235438 | 72 | 250 | 1.7 | 10.4 | 0.00 | 0.00 | 0.00 | 34 | 1008.8 |
| 20260507234937 | 73 | 233 | 4.3 | 9.6 | 0.00 | 0.00 | 0.00 | 31 | 1008.8 |
| 20260507234436 | 73 | 251 | 3.5 | 9.6 | 0.00 | 0.00 | 0.00 | 33 | 1008.8 |
| 20260507233936 | 73 | 238 | 4.3 | 9.6 | 0.00 | 0.00 | 0.00 | 32 | 1009.1 |
| 20260507233435 | 73 | 232 | 4.3 | 9.6 | 0.00 | 0.00 | 0.00 | 31 | 1009.1 |
| 20260507232934 | 73 | 227 | 1.7 | 10.4 | 0.00 | 0.00 | 0.00 | 32 | 1009.1 |
| 20260507232434 | 73 | 230 | 5.2 | 10.4 | 0.00 | 0.00 | 0.00 | 32 | 1009.1 |
| 20260507231902 | 73 | 235 | 3.5 | 10.4 | 0.00 | 0.00 | 0.00 | 31 | 1009.1 |
| 20260507231401 | 73 | 251 | 7.0 | 10.4 | 0.00 | 0.00 | 0.00 | 31 | 1009.1 |
| 20260507230901 | 73 | 238 | 3.5 | 12.2 | 0.00 | 0.00 | 0.00 | 32 | 1009.1 |
| 20260507230400 | 73 | 241 | 4.3 | 12.2 | 0.00 | 0.00 | 0.00 | 31 | 1009.1 |
| 20260507225900 | 73 | 228 | 5.2 | 9.6 | 0.00 | 0.00 | 0.00 | 31 | 1009.1 |
| 20260507225359 | 73 | 243 | 3.5 | 10.4 | 0.00 | 0.00 | 0.00 | 32 | 1009.5 |
| 20260507224859 | 73 | 241 | 5.2 | 10.4 | 0.00 | 0.00 | 0.00 | 31 | 1009.5 |
| 20260507224358 | 73 | 235 | 6.1 | 9.6 | 0.00 | 0.00 | 0.00 | 33 | 1009.5 |
| 20260507223857 | 73 | 244 | 5.2 | 10.4 | 0.00 | 0.00 | 0.00 | 32 | 1009.5 |
| 20260507223325 | 73 | 234 | 6.1 | 10.4 | 0.00 | 0.00 | 0.00 | 31 | 1009.5 |
| 20260507222754 | 73 | 242 | 4.3 | 12.2 | 0.00 | 0.00 | 0.00 | 32 | 1009.5 |
| 20260507222222 | 73 | 227 | 4.3 | 12.2 | 0.00 | 0.00 | 0.00 | 33 | 1009.5 |
| 20260507221721 | 72 | 227 | 2.6 | 11.3 | 0.00 | 0.00 | 0.00 | 33 | 1009.8 |
| 20260507221220 | 73 | 236 | 7.0 | 13.0 | 0.00 | 0.00 | 0.00 | 32 | 1009.8 |
| 20260507220720 | 73 | 258 | 7.0 | 13.0 | 0.00 | 0.00 | 0.00 | 32 | 1009.8 |
| 20260507220219 | 72 | 229 | 6.1 | 10.4 | 0.00 | 0.00 | 0.00 | 33 | 1010.2 |
| 20260507215718 | 72 | 262 | 5.2 | 10.4 | 0.00 | 0.00 | 0.00 | 32 | 1010.2 |
| 20260507215218 | 72 | 245 | 3.5 | 13.0 | 0.00 | 0.00 | 0.00 | 34 | 1009.8 |
| 20260507214717 | 72 | 236 | 5.2 | 13.0 | 0.00 | 0.00 | 0.00 | 34 | 1010.2 |
| 20260507214216 | 72 | 238 | 5.2 | 10.4 | 0.00 | 0.00 | 0.00 | 34 | 1010.2 |
| 20260507213715 | 72 | 255 | 5.2 | 12.2 | 0.00 | 0.00 | 0.00 | 35 | 1010.2 |
| 20260507213144 | 72 | 251 | 7.0 | 12.2 | 0.00 | 0.00 | 0.00 | 35 | 1010.5 |
| 20260507212643 | 72 | 246 | 3.5 | 12.2 | 0.00 | 0.00 | 0.00 | 35 | 1010.5 |
| 20260507212111 | 72 | 237 | 7.0 | 12.2 | 0.00 | 0.00 | 0.00 | 35 | 1010.5 |
| 20260507211610 | 72 | 251 | 3.5 | 10.4 | 0.00 | 0.00 | 0.00 | 36 | 1010.5 |
| 20260507211110 | 72 | 249 | 5.2 | 13.0 | 0.00 | 0.00 | 0.00 | 34 | 1010.5 |
| 20260507210609 | 71 | 239 | 4.3 | 13.0 | 0.00 | 0.00 | 0.00 | 34 | 1010.5 |
| 20260507210108 | 71 | 249 | 5.2 | 13.9 | 0.00 | 0.00 | 0.00 | 35 | 1010.8 |
| 20260507205536 | 71 | 239 | 7.8 | 13.9 | 0.00 | 0.00 | 0.00 | 33 | 1010.8 |
| 20260507205036 | 71 | 251 | 2.6 | 13.0 | 0.00 | 0.00 | 0.00 | 34 | 1010.8 |
| 20260507204535 | 71 | 239 | 7.0 | 13.0 | 0.00 | 0.00 | 0.00 | 34 | 1010.8 |
| 20260507204034 | 71 | 244 | 6.1 | 12.2 | 0.00 | 0.00 | 0.00 | 34 | 1010.8 |
| 20260507203502 | 71 | 223 | 5.2 | 12.2 | 0.00 | 0.00 | 0.00 | 34 | 1010.8 |
| 20260507203002 | 72 | 259 | 7.0 | 12.2 | 0.00 | 0.00 | 0.00 | 34 | 1011.2 |
| 20260507202501 | 71 | 256 | 4.3 | 15.6 | 0.00 | 0.00 | 0.00 | 36 | 1011.2 |
| 20260507202000 | 71 | 230 | 5.2 | 15.6 | 0.00 | 0.00 | 0.00 | 34 | 1011.2 |
| 20260507201500 | 71 | 244 | 6.1 | 11.3 | 0.00 | 0.00 | 0.00 | 36 | 1011.2 |
| 20260507200928 | 71 | 235 | 5.2 | 11.3 | 0.00 | 0.00 | 0.00 | 35 | 1011.2 |
| 20260507200428 | 71 | 238 | 6.1 | 11.3 | 0.00 | 0.00 | 0.00 | 34 | 1011.2 |
| 20260507195856 | 71 | 244 | 3.5 | 11.3 | 0.00 | 0.00 | 0.00 | 37 | 1011.5 |
| 20260507195355 | 71 | 255 | 6.1 | 11.3 | 0.00 | 0.00 | 0.00 | 35 | 1011.5 |
| 20260507194854 | 70 | 163 | 3.5 | 11.3 | 0.00 | 0.00 | 0.00 | 36 | 1011.5 |
| 20260507194354 | 70 | 238 | 7.0 | 10.4 | 0.00 | 0.00 | 0.00 | 36 | 1011.9 |
| 20260507193822 | 70 | 240 | 4.3 | 10.4 | 0.00 | 0.00 | 0.00 | 37 | 1011.9 |
| 20260507193321 | 70 | 221 | 4.3 | 13.9 | 0.00 | 0.00 | 0.00 | 36 | 1011.9 |
| 20260507192821 | 70 | 251 | 7.8 | 13.9 | 0.00 | 0.00 | 0.00 | 36 | 1011.9 |
| 20260507192320 | 69 | 254 | 4.3 | 12.2 | 0.00 | 0.00 | 0.00 | 36 | 1011.9 |
| 20260507191819 | 70 | 251 | 8.7 | 15.6 | 0.00 | 0.00 | 0.00 | 36 | 1012.2 |
| 20260507191319 | 70 | 247 | 8.7 | 18.2 | 0.00 | 0.00 | 0.00 | 35 | 1011.9 |
| 20260507190747 | 69 | 234 | 7.8 | 18.2 | 0.00 | 0.00 | 0.00 | 35 | 1012.2 |
| 20260507190246 | 69 | 231 | 7.0 | 11.3 | 0.00 | 0.00 | 0.00 | 37 | 1012.2 |
| 20260507185745 | 69 | 236 | 6.1 | 11.3 | 0.00 | 0.00 | 0.00 | 38 | 1012.2 |
| 20260507185245 | 69 | 227 | 5.2 | 11.3 | 0.00 | 0.00 | 0.00 | 37 | 1012.2 |
| 20260507184744 | 69 | 245 | 7.0 | 13.0 | 0.00 | 0.00 | 0.00 | 37 | 1012.2 |
| 20260507184243 | 69 | 233 | 4.3 | 13.0 | 0.00 | 0.00 | 0.00 | 37 | 1012.5 |
| 20260507183742 | 68 | 251 | 2.6 | 11.3 | 0.00 | 0.00 | 0.00 | 38 | 1012.5 |
| 20260507183242 | 68 | 232 | 3.5 | 11.3 | 0.00 | 0.00 | 0.00 | 39 | 1012.5 |
| 20260507182741 | 68 | 227 | 7.0 | 13.9 | 0.00 | 0.00 | 0.00 | 38 | 1012.5 |
| 20260507182240 | 68 | 260 | 8.7 | 13.9 | 0.00 | 0.00 | 0.00 | 38 | 1012.5 |
| 20260507181740 | 68 | 233 | 6.1 | 12.2 | 0.00 | 0.00 | 0.00 | 38 | 1012.9 |
| 20260507181239 | 67 | 247 | 6.1 | 13.0 | 0.00 | 0.00 | 0.00 | 39 | 1012.9 |
| 20260507180709 | 67 | 243 | 5.2 | 13.0 | 0.00 | 0.00 | 0.00 | 39 | 1013.2 |
| 20260507180207 | 67 | 261 | 8.7 | 13.0 | 0.00 | 0.00 | 0.00 | 37 | 1013.2 |
| 20260507175707 | 67 | 264 | 8.7 | 13.0 | 0.00 | 0.00 | 0.00 | 39 | 1013.2 |
| 20260507175135 | 67 | 254 | 8.7 | 11.3 | 0.00 | 0.00 | 0.00 | 40 | 1013.5 |
| 20260507174634 | 67 | 232 | 6.1 | 13.0 | 0.00 | 0.00 | 0.00 | 39 | 1013.5 |
| 20260507174103 | 66 | 244 | 5.2 | 13.0 | 0.00 | 0.00 | 0.00 | 40 | 1013.5 |
| 20260507173602 | 66 | 225 | 6.1 | 11.3 | 0.00 | 0.00 | 0.00 | 41 | 1013.9 |
| 20260507173101 | 66 | 253 | 6.1 | 12.2 | 0.00 | 0.00 | 0.00 | 41 | 1013.9 |
| 20260507172601 | 66 | 227 | 7.8 | 12.2 | 0.00 | 0.00 | 0.00 | 42 | 1013.9 |
| 20260507172029 | 66 | 232 | 5.2 | 11.3 | 0.00 | 0.00 | 0.00 | 42 | 1013.9 |
| 20260507171529 | 66 | 233 | 6.1 | 11.3 | 0.00 | 0.00 | 0.00 | 40 | 1013.9 |
| 20260507171028 | 66 | 241 | 4.3 | 13.9 | 0.00 | 0.00 | 0.00 | 41 | 1013.9 |
| 20260507170528 | 66 | 234 | 7.0 | 16.5 | 0.00 | 0.00 | 0.00 | 42 | 1014.2 |
| 20260507170027 | 66 | 253 | 8.7 | 16.5 | 0.00 | 0.00 | 0.00 | 40 | 1013.9 |
| 20260507165527 | 66 | 251 | 7.0 | 13.9 | 0.00 | 0.00 | 0.00 | 41 | 1014.2 |
| 20260507164955 | 65 | 274 | 7.8 | 13.9 | 0.00 | 0.00 | 0.00 | 42 | 1014.2 |
| 20260507164454 | 65 | 254 | 6.1 | 11.3 | 0.00 | 0.00 | 0.00 | 42 | 1014.2 |
| 20260507163954 | 65 | 248 | 7.0 | 13.9 | 0.00 | 0.00 | 0.00 | 43 | 1014.2 |
| 20260507163453 | 64 | 251 | 7.8 | 13.9 | 0.00 | 0.00 | 0.00 | 42 | 1014.6 |
| 20260507162953 | 65 | 264 | 7.0 | 12.2 | 0.00 | 0.00 | 0.00 | 43 | 1014.6 |
| 20260507162421 | 64 | 259 | 7.0 | 16.5 | 0.00 | 0.00 | 0.00 | 44 | 1014.6 |
| 20260507161920 | 64 | 250 | 6.1 | 16.5 | 0.00 | 0.00 | 0.00 | 44 | 1014.9 |
| 20260507161420 | 63 | 260 | 7.0 | 15.6 | 0.00 | 0.00 | 0.00 | 44 | 1014.6 |
| 20260507160919 | 63 | 261 | 8.7 | 15.6 | 0.00 | 0.00 | 0.00 | 43 | 1014.9 |
| 20260507160419 | 63 | 254 | 9.6 | 13.9 | 0.00 | 0.00 | 0.00 | 42 | 1014.9 |
| 20260507155918 | 64 | 244 | 7.0 | 13.9 | 0.00 | 0.00 | 0.00 | 43 | 1014.9 |
| 20260507155417 | 63 | 262 | 7.0 | 13.9 | 0.00 | 0.00 | 0.00 | 44 | 1014.9 |
| 20260507154845 | 63 | 255 | 7.0 | 15.6 | 0.00 | 0.00 | 0.00 | 43 | 1014.9 |
| 20260507154314 | 63 | 242 | 7.8 | 15.6 | 0.00 | 0.00 | 0.00 | 44 | 1015.2 |
| 20260507153813 | 63 | 269 | 7.0 | 13.0 | 0.00 | 0.00 | 0.00 | 45 | 1014.9 |
| 20260507153312 | 63 | 253 | 8.7 | 13.0 | 0.00 | 0.00 | 0.00 | 44 | 1015.2 |
| 20260507152812 | 62 | 261 | 7.0 | 15.6 | 0.00 | 0.00 | 0.00 | 46 | 1015.2 |
| 20260507152311 | 62 | 260 | 7.8 | 15.6 | 0.00 | 0.00 | 0.00 | 45 | 1015.2 |
| 20260507151810 | 62 | 258 | 7.8 | 18.2 | 0.00 | 0.00 | 0.00 | 47 | 1015.2 |
| 20260507151239 | 61 | 255 | 8.7 | 18.2 | 0.00 | 0.00 | 0.00 | 47 | 1015.2 |
| 20260507150738 | 61 | 236 | 5.2 | 12.2 | 0.00 | 0.00 | 0.00 | 49 | 1015.6 |
| 20260507150135 | 60 | 247 | 6.1 | 11.3 | 0.00 | 0.00 | 0.00 | 50 | 1015.6 |
| 20260507145634 | 60 | 267 | 4.3 | 9.6 | 0.00 | 0.00 | 0.00 | 50 | 1015.6 |
| 20260507145134 | 60 | 279 | 6.1 | 11.3 | 0.00 | 0.00 | 0.00 | 49 | 1015.6 |
| 20260507144633 | 60 | 240 | 7.8 | 17.4 | 0.00 | 0.00 | 0.00 | 49 | 1015.6 |
| 20260507144132 | 59 | 275 | 6.1 | 17.4 | 0.00 | 0.00 | 0.00 | 49 | 1015.9 |
| 20260507143632 | 59 | 258 | 7.0 | 15.6 | 0.00 | 0.00 | 0.00 | 50 | 1015.9 |
| 20260507143131 | 59 | 285 | 7.0 | 12.2 | 0.00 | 0.00 | 0.00 | 50 | 1015.9 |
| 20260507142630 | 58 | 267 | 3.5 | 10.4 | 0.00 | 0.00 | 0.00 | 54 | 1015.9 |
| 20260507142130 | 58 | 264 | 7.0 | 11.3 | 0.00 | 0.00 | 0.00 | 53 | 1015.9 |
| 20260507141629 | 58 | 268 | 3.5 | 11.3 | 0.00 | 0.00 | 0.00 | 55 | 1015.9 |
| 20260507141128 | 57 | 250 | 3.5 | 8.7 | 0.00 | 0.00 | 0.00 | 56 | 1015.9 |
| 20260507140628 | 57 | 260 | 5.2 | 10.4 | 0.00 | 0.00 | 0.00 | 56 | 1015.9 |
| 20260507140127 | 56 | 271 | 5.2 | 10.4 | 0.00 | 0.00 | 0.00 | 56 | 1015.9 |
| 20260507135626 | 56 | 296 | 4.3 | 7.8 | 0.00 | 0.00 | 0.00 | 56 | 1015.9 |
| 20260507135055 | 55 | 262 | 4.3 | 7.8 | 0.00 | 0.00 | 0.00 | 58 | 1015.9 |
| 20260507134554 | 55 | 267 | 4.3 | 10.4 | 0.00 | 0.00 | 0.00 | 58 | 1015.9 |
| 20260507133951 | 54 | 252 | 5.2 | 10.4 | 0.00 | 0.00 | 0.00 | 59 | 1015.6 |
| 20260507133451 | 54 | 248 | 5.2 | 7.8 | 0.00 | 0.00 | 0.00 | 59 | 1015.9 |
| 20260507132950 | 54 | 234 | 3.5 | 7.8 | 0.00 | 0.00 | 0.00 | 60 | 1015.6 |
| 20260507132449 | 53 | 242 | 3.5 | 7.8 | 0.00 | 0.00 | 0.00 | 61 | 1015.9 |
| 20260507131949 | 53 | 250 | 4.3 | 7.8 | 0.00 | 0.00 | 0.00 | 61 | 1015.9 |
| 20260507131448 | 53 | 229 | 3.5 | 7.0 | 0.00 | 0.00 | 0.00 | 62 | 1015.9 |
| 20260507130948 | 52 | 246 | 4.3 | 7.0 | 0.00 | 0.00 | 0.00 | 62 | 1015.9 |
| 20260507130447 | 52 | 239 | 3.5 | 7.0 | 0.00 | 0.00 | 0.00 | 63 | 1016.3 |
| 20260507125946 | 51 | 243 | 3.5 | 6.1 | 0.00 | 0.00 | 0.00 | 64 | 1015.9 |
| 20260507125312 | 51 | 232 | 1.7 | 6.1 | 0.00 | 0.00 | 0.00 | 65 | 1015.9 |
| 20260507124812 | 50 | 225 | 1.7 | 5.2 | 0.00 | 0.00 | 0.00 | 65 | 1015.9 |
| 20260507124209 | 50 | 247 | 1.7 | 5.2 | 0.00 | 0.00 | 0.00 | 66 | 1015.9 |
| 20260507123708 | 49 | 227 | 1.7 | 5.2 | 0.00 | 0.00 | 0.00 | 66 | 1015.9 |
| 20260507123208 | 49 | 239 | 0.9 | 5.2 | 0.00 | 0.00 | 0.00 | 67 | 1015.9 |
| 20260507122636 | 49 | 229 | 1.7 | 5.2 | 0.00 | 0.00 | 0.00 | 67 | 1015.9 |
| 20260507122136 | 48 | 228 | 1.7 | 3.5 | 0.00 | 0.00 | 0.00 | 68 | 1016.3 |
| 20260507121532 | 48 | 233 | 0.9 | 4.3 | 0.00 | 0.00 | 0.00 | 68 | 1016.3 |
| 20260507121032 | 47 | 219 | 2.6 | 4.3 | 0.00 | 0.00 | 0.00 | 68 | 1015.9 |
| 20260507120531 | 47 | 225 | 0.0 | 0.9 | 0.00 | 0.00 | 0.00 | 69 | 1016.3 |
| 20260507120000 | 47 | 236 | 0.9 | 0.9 | 0.00 | 0.00 | 0.00 | 69 | 1015.9 |
| 20260507115459 | 47 | 217 | 0.9 | 1.7 | 0.00 | 0.00 | 0.00 | 69 | 1015.9 |
| 20260507114958 | 47 | 244 | 0.9 | 2.6 | 0.00 | 0.00 | 0.00 | 69 | 1015.9 |
| 20260507114458 | 47 | 217 | 1.7 | 2.6 | 0.00 | 0.00 | 0.00 | 68 | 1015.9 |
| 20260507113957 | 47 | 258 | 0.0 | 1.7 | 0.00 | 0.00 | 0.00 | 68 | 1015.9 |
| 20260507113456 | 47 | 233 | 0.9 | 1.7 | 0.00 | 0.00 | 0.00 | 68 | 1015.9 |
| 20260507112956 | 47 | 224 | 0.9 | 1.7 | 0.00 | 0.00 | 0.00 | 68 | 1015.9 |
| 20260507112455 | 47 | 234 | 0.0 | 3.5 | 0.00 | 0.00 | 0.00 | 68 | 1015.9 |
| 20260507111955 | 46 | 215 | 0.0 | 3.5 | 0.00 | 0.00 | 0.00 | 68 | 1015.9 |
| 20260507111454 | 46 | 232 | 0.9 | 0.9 | 0.00 | 0.00 | 0.00 | 68 | 1015.9 |
| 20260507110954 | 46 | 221 | 0.0 | 0.9 | 0.00 | 0.00 | 0.00 | 67 | 1015.9 |
| 20260507110453 | 46 | 209 | 0.0 | 0.0 | 0.00 | 0.00 | 0.00 | 67 | 1015.9 |
| 20260507105922 | 47 | 202 | 0.0 | 0.9 | 0.00 | 0.00 | 0.00 | 66 | 1015.9 |
| 20260507105421 | 47 | 202 | 0.0 | 0.9 | 0.00 | 0.00 | 0.00 | 66 | 1015.9 |
| 20260507104920 | 47 | 217 | 0.0 | 3.5 | 0.00 | 0.00 | 0.00 | 66 | 1015.6 |
| 20260507104419 | 47 | 223 | 0.9 | 3.5 | 0.00 | 0.00 | 0.00 | 66 | 1015.6 |
| 20260507103919 | 47 | 213 | 0.0 | 0.9 | 0.00 | 0.00 | 0.00 | 66 | 1015.6 |
| 20260507103347 | 47 | 218 | 0.0 | 4.3 | 0.00 | 0.00 | 0.00 | 65 | 1015.6 |
| 20260507102846 | 47 | 245 | 0.9 | 4.3 | 0.00 | 0.00 | 0.00 | 65 | 1015.9 |
| 20260507102346 | 47 | 234 | 1.7 | 3.5 | 0.00 | 0.00 | 0.00 | 66 | 1015.9 |
| 20260507101845 | 47 | 294 | 0.0 | 0.9 | 0.00 | 0.00 | 0.00 | 65 | 1015.9 |
| 20260507101344 | 47 | 231 | 0.9 | 0.9 | 0.00 | 0.00 | 0.00 | 65 | 1015.9 |
| 20260507100843 | 47 | 218 | 0.9 | 0.9 | 0.00 | 0.00 | 0.00 | 65 | 1015.9 |
| 20260507100343 | 47 | 218 | 0.0 | 0.9 | 0.00 | 0.00 | 0.00 | 64 | 1015.9 |
| 20260507095811 | 47 | 241 | 0.9 | 0.9 | 0.00 | 0.00 | 0.00 | 64 | 1016.3 |
| 20260507095310 | 47 | 239 | 0.9 | 1.7 | 0.00 | 0.00 | 0.00 | 63 | 1016.3 |
| 20260507094809 | 47 | 217 | 1.7 | 1.7 | 0.00 | 0.00 | 0.00 | 63 | 1016.3 |
| 20260507094308 | 47 | 204 | 0.9 | 2.6 | 0.00 | 0.00 | 0.00 | 63 | 1016.3 |
| 20260507093808 | 47 | 228 | 0.9 | 3.5 | 0.00 | 0.00 | 0.00 | 63 | 1016.3 |
| 20260507093236 | 47 | 232 | 0.9 | 3.5 | 0.00 | 0.00 | 0.00 | 62 | 1016.3 |
| 20260507092704 | 47 | 230 | 0.9 | 3.5 | 0.00 | 0.00 | 0.00 | 62 | 1016.3 |
| 20260507092203 | 47 | 238 | 0.0 | 0.9 | 0.00 | 0.00 | 0.00 | 61 | 1016.3 |
| 20260507091703 | 47 | 225 | 0.9 | 1.7 | 0.00 | 0.00 | 0.00 | 61 | 1016.3 |
| 20260507091202 | 47 | 218 | 0.9 | 1.7 | 0.00 | 0.00 | 0.00 | 61 | 1016.3 |
| 20260507090702 | 47 | 237 | 0.9 | 0.9 | 0.00 | 0.00 | 0.00 | 61 | 1016.3 |
| 20260507090201 | 47 | 223 | 0.9 | 1.7 | 0.00 | 0.00 | 0.00 | 60 | 1016.3 |
| 20260507085701 | 47 | 238 | 0.0 | 1.7 | 0.00 | 0.00 | 0.00 | 60 | 1016.6 |
| 20260507085200 | 47 | 241 | 0.9 | 0.9 | 0.00 | 0.00 | 0.00 | 60 | 1016.6 |
| 20260507084659 | 48 | 246 | 0.0 | 0.9 | 0.00 | 0.00 | 0.00 | 59 | 1016.3 |
| 20260507084159 | 48 | 246 | 0.9 | 0.9 | 0.00 | 0.00 | 0.00 | 59 | 1016.6 |
| 20260507083658 | 48 | 243 | 0.0 | 1.7 | 0.00 | 0.00 | 0.00 | 58 | 1016.6 |
| 20260507083157 | 48 | 246 | 0.9 | 1.7 | 0.00 | 0.00 | 0.00 | 58 | 1016.6 |
| 20260507082626 | 48 | 244 | 0.9 | 3.5 | 0.00 | 0.00 | 0.00 | 57 | 1016.6 |
| 20260507082125 | 48 | 244 | 1.7 | 3.5 | 0.00 | 0.00 | 0.00 | 57 | 1016.6 |
| 20260507081624 | 48 | 248 | 0.9 | 0.9 | 0.00 | 0.00 | 0.00 | 57 | 1016.6 |
| 20260507081124 | 49 | 248 | 0.9 | 1.7 | 0.00 | 0.00 | 0.00 | 56 | 1016.6 |
| 20260507080552 | 49 | 249 | 0.9 | 1.7 | 0.00 | 0.00 | 0.00 | 56 | 1016.6 |
| 20260507080021 | 49 | 238 | 1.7 | 2.6 | 0.00 | 0.00 | 0.00 | 55 | 1016.6 |
| 20260507075520 | 49 | 230 | 1.7 | 3.5 | 0.00 | 0.00 | 0.00 | 56 | 1016.6 |
| 20260507074948 | 49 | 241 | 0.9 | 3.5 | 0.00 | 0.00 | 0.00 | 55 | 1016.6 |
| 20260507074447 | 49 | 244 | 0.9 | 2.6 | 0.00 | 0.00 | 0.00 | 55 | 1016.6 |
| 20260507073946 | 49 | 244 | 0.9 | 3.5 | 0.00 | 0.00 | 0.00 | 55 | 1016.6 |
| 20260507073446 | 49 | 236 | 1.7 | 3.5 | 0.00 | 0.00 | 0.00 | 55 | 1016.9 |
| 20260507072945 | 49 | 257 | 0.9 | 1.7 | 0.00 | 0.00 | 0.00 | 56 | 1016.9 |
| 20260507072444 | 48 | 254 | 0.9 | 3.5 | 0.00 | 0.00 | 0.00 | 55 | 1016.9 |
| 20260507071913 | 48 | 264 | 1.7 | 1.7 | 0.00 | 0.00 | 0.00 | 55 | 1016.9 |
| 20260507071412 | 48 | 251 | 0.9 | 1.7 | 0.00 | 0.00 | 0.00 | 54 | 1016.9 |
| 20260507070911 | 48 | 254 | 0.0 | 0.9 | 0.00 | 0.00 | 0.00 | 54 | 1016.9 |
| 20260507070411 | 48 | 247 | 0.0 | 0.9 | 0.00 | 0.00 | 0.00 | 53 | 1016.9 |
| 20260507065839 | 48 | 227 | 0.0 | 0.9 | 0.00 | 0.00 | 0.00 | 54 | 1016.9 |
| 20260507065338 | 48 | 231 | 0.0 | 0.0 | 0.00 | 0.00 | 0.00 | 53 | 1016.9 |
| 20260507064837 | 48 | 231 | 0.0 | 0.9 | 0.00 | 0.00 | 0.00 | 53 | 1017.3 |
| 20260507064337 | 47 | 218 | 0.9 | 0.9 | 0.00 | 0.00 | 0.00 | 53 | 1017.3 |
| 20260507063836 | 47 | 240 | 0.9 | 0.9 | 0.00 | 0.00 | 0.00 | 55 | 1017.3 |
| 20260507063335 | 47 | 281 | 0.0 | 0.0 | 0.00 | 0.00 | 0.00 | 55 | 1017.3 |
| 20260507062835 | 46 | 281 | 0.0 | 0.0 | 0.00 | 0.00 | 0.00 | 56 | 1017.3 |
| 20260507062334 | 46 | 281 | 0.0 | 0.0 | 0.00 | 0.00 | 0.00 | 56 | 1017.3 |
| 20260507061833 | 46 | 281 | 0.0 | 0.0 | 0.00 | 0.00 | 0.00 | 60 | 1017.3 |
| 20260507061332 | 46 | 281 | 0.0 | 0.0 | 0.00 | 0.00 | 0.00 | 62 | 1017.6 |
| 20260507060801 | 47 | 281 | 0.0 | 0.0 | 0.00 | 0.00 | 0.00 | 61 | 1017.6 |
| 20260507060300 | 47 | 281 | 0.0 | 0.0 | 0.00 | 0.00 | 0.00 | 59 | 1017.6 |
| 20260507055759 | 47 | 281 | 0.0 | 0.0 | 0.00 | 0.00 | 0.00 | 64 | 1017.6 |
| 20260507055228 | 48 | 281 | 0.0 | 0.0 | 0.00 | 0.00 | 0.00 | 63 | 1017.6 |
| 20260507054656 | 48 | 281 | 0.0 | 0.0 | 0.00 | 0.00 | 0.00 | 62 | 1017.6 |
| 20260507054155 | 48 | 281 | 0.0 | 0.0 | 0.00 | 0.00 | 0.00 | 62 | 1017.6 |
| 20260507053624 | 48 | 281 | 0.0 | 0.0 | 0.00 | 0.00 | 0.00 | 60 | 1017.6 |
| 20260507053123 | 48 | 281 | 0.0 | 0.0 | 0.00 | 0.00 | 0.00 | 65 | 1017.6 |
| 20260507052622 | 49 | 281 | 0.0 | 0.0 | 0.00 | 0.00 | 0.00 | 60 | 1017.6 |
| 20260507052122 | 49 | 281 | 0.0 | 0.0 | 0.00 | 0.00 | 0.00 | 61 | 1017.6 |
| 20260507051621 | 49 | 281 | 0.0 | 0.0 | 0.00 | 0.00 | 0.00 | 61 | 1017.6 |
| 20260507051120 | 49 | 281 | 0.0 | 0.0 | 0.00 | 0.00 | 0.00 | 63 | 1017.6 |
| 20260507050619 | 49 | 281 | 0.0 | 0.0 | 0.00 | 0.00 | 0.00 | 64 | 1017.6 |
| 20260507050119 | 49 | 281 | 0.0 | 0.0 | 0.00 | 0.00 | 0.00 | 57 | 1017.6 |
| 20260507045547 | 49 | 281 | 0.0 | 0.0 | 0.00 | 0.00 | 0.00 | 53 | 1017.6 |
| 20260507045047 | 48 | 281 | 0.0 | 0.0 | 0.00 | 0.00 | 0.00 | 54 | 1017.6 |
| 20260507044546 | 48 | 281 | 0.0 | 0.0 | 0.00 | 0.00 | 0.00 | 55 | 1017.6 |
| 20260507044045 | 48 | 281 | 0.0 | 0.0 | 0.00 | 0.00 | 0.00 | 58 | 1017.6 |
| 20260507043545 | 48 | 281 | 0.0 | 0.0 | 0.00 | 0.00 | 0.00 | 64 | 1017.6 |
| 20260507043044 | 48 | 281 | 0.0 | 0.0 | 0.00 | 0.00 | 0.00 | 62 | 1017.9 |
| 20260507042544 | 48 | 281 | 0.0 | 0.0 | 0.00 | 0.00 | 0.00 | 67 | 1017.9 |
| 20260507042012 | 48 | 281 | 0.0 | 0.0 | 0.00 | 0.00 | 0.00 | 67 | 1017.9 |
| 20260507041512 | 48 | 281 | 0.0 | 0.0 | 0.00 | 0.00 | 0.00 | 64 | 1017.9 |
| 20260507041011 | 48 | 281 | 0.0 | 0.0 | 0.00 | 0.00 | 0.00 | 63 | 1017.9 |
| 20260507040510 | 48 | 281 | 0.0 | 0.0 | 0.00 | 0.00 | 0.00 | 59 | 1017.9 |
| 20260507040010 | 48 | 281 | 0.0 | 0.0 | 0.00 | 0.00 | 0.00 | 61 | 1017.9 |
| 20260507035509 | 48 | 281 | 0.0 | 0.0 | 0.00 | 0.00 | 0.00 | 65 | 1017.9 |
| 20260507035008 | 48 | 281 | 0.0 | 0.0 | 0.00 | 0.00 | 0.00 | 62 | 1017.9 |
| 20260507034508 | 48 | 281 | 0.0 | 0.0 | 0.00 | 0.00 | 0.00 | 63 | 1017.9 |
| 20260507034007 | 48 | 281 | 0.0 | 0.0 | 0.00 | 0.00 | 0.00 | 65 | 1017.9 |
| 20260507033506 | 48 | 281 | 0.0 | 0.0 | 0.00 | 0.00 | 0.00 | 64 | 1018.3 |
| 20260507033006 | 48 | 281 | 0.0 | 0.0 | 0.00 | 0.00 | 0.00 | 62 | 1017.9 |
| 20260507032505 | 49 | 281 | 0.0 | 0.0 | 0.00 | 0.00 | 0.00 | 63 | 1017.9 |
| 20260507032004 | 48 | 281 | 0.0 | 0.0 | 0.00 | 0.00 | 0.00 | 62 | 1017.9 |
| 20260507031433 | 48 | 281 | 0.0 | 0.0 | 0.00 | 0.00 | 0.00 | 59 | 1017.9 |
| 20260507030932 | 48 | 281 | 0.0 | 0.0 | 0.00 | 0.00 | 0.00 | 53 | 1017.9 |
| 20260507030432 | 48 | 281 | 0.0 | 0.0 | 0.00 | 0.00 | 0.00 | 61 | 1017.9 |
| 20260507025931 | 48 | 281 | 0.0 | 0.0 | 0.00 | 0.00 | 0.00 | 61 | 1017.9 |
| 20260507025430 | 48 | 281 | 0.0 | 0.0 | 0.00 | 0.00 | 0.00 | 59 | 1017.9 |
| 20260507024827 | 49 | 281 | 0.0 | 0.0 | 0.00 | 0.00 | 0.00 | 57 | 1017.9 |
| 20260507024327 | 49 | 281 | 0.0 | 0.0 | 0.00 | 0.00 | 0.00 | 50 | 1017.9 |
| 20260507023826 | 49 | 281 | 0.0 | 0.0 | 0.00 | 0.00 | 0.00 | 49 | 1017.9 |
| 20260507023326 | 50 | 281 | 0.0 | 0.0 | 0.00 | 0.00 | 0.00 | 53 | 1017.9 |
| 20260507022723 | 50 | 281 | 0.0 | 0.0 | 0.00 | 0.00 | 0.00 | 45 | 1017.9 |